Location: *
(55.5817°S, 142.4781°W)
Time: 07:32:08
(UTC+00:00)

Cosmos 2082 - Pass Details

Date: 29 April 2025
Orbit: 831 x 855 km, 71.0° (Epoch: 23 May)

Event Time Altitude Azimuth Distance (km) Brightness Sun altitude
Exits shadow 14:14:40 23° 215° (SW) 1,732 5.0 -22.3°
Maximum altitude 14:18:21 86° 302° (WNW) 855 3.6 -21.8°
Drops below altitude 10° 14:24:00 10° 30° (NNE) 2,454 6.4 -21.0°
Sets 14:26:25 0° 30° (NNE) 3,381 7.2 -20.6°
